Location: Broek
(53.2737°N, 5.9967°E)
Time: 21:37:22
(UTC+00:00)

NOSS 8 (A) - Pass Details

Date: 10 October 2024
Orbit: 352 x 1507 km, 63.3° (Epoch: 10 November)

Event Time Altitude Azimuth Distance (km) Brightness Sun altitude
Rises 17:59:09 0° 311° (NW) 2,182 8.8 -11.1°
Reaches altitude 10° 18:01:03 10° 310° (NW) 1,352 7.7 -11.3°
Maximum altitude 18:03:55 78° 225° (SW) 402 4.2 -11.8°
Enters shadow 18:06:53 12° 138° (SE) 1,403 6.5 -12.2°
